Flag for United Kingdom Weather past 2 weeks in Stockport, England, United Kingdom

Now
57 °F

Broken clouds.


Feels Like: 55 °F
Forecast: 41 / 64 °F
Wind: 8 mph from Northwest

Location: Manchester Airport

Current Time: Oct 1, 2014 at 5:31:37 PM

Latest Report: Oct 1, 2014 at 4:50 PM


Visibility: N/A

Pressure: 30.30 "Hg

Humidity: 88%

Dew point: 54 °F

Location of StockportLocation

Historic Weather in Stockport — Graph

°F

Stockport temperature yesterday

Maximum temperature yesterday: 68 °F (at 1:20 PM)
Minimum temperature yesterday: 54 °F (at 3:20 AM)
Average temperature yesterday: 61 °F

Past Weeks' High & Low Weather Summary

 TemperatureHumidityPressure
High72 °F (Sep 18, 3:20 PM)100% (Sep 17, 5:50 AM)30.36 "Hg (Sep 17, 5:50 AM)
Low39 °F (Sep 22, 3:50 AM)52% (Sep 21, 1:50 PM)29.86 "Hg (Sep 18, 4:20 AM)
Average57 °F86%30.09 "Hg
* Reported Sep 16 4:20 PM — Oct 1 4:20 PM, Stockport, Weather by CustomWeather, © 2014

Note: Actual official high and low records may vary slightly from our data, if they occured in-between our weather recording intervals... More about our weather records

Advertising

Stockport weather history for previous 24 hours

 ConditionsComfort  
Time TempWeatherWind HumidityBarometerVisibility
4:20 PM
Oct 1
59 °FBroken clouds.9 mph94%30.27 "HgN/A
3:50 PM59 °FBroken clouds.10 mph94%30.27 "HgN/A
3:20 PM61 °FScattered showers. Broken clouds.13 mph88%30.24 "HgN/A
2:50 PM63 °FPartly sunny.12 mph77%30.24 "HgN/A
2:20 PM63 °FPartly sunny.9 mph77%30.21 "HgN/A
1:50 PM64 °FScattered clouds.3 mph73%30.21 "HgN/A
1:20 PM63 °FScattered clouds.3 mph77%30.21 "HgN/A
12:50 PM63 °FPartly sunny.7 mph73%30.21 "HgN/A
12:20 PM64 °FBroken clouds.7 mph68%30.21 "HgN/A
11:50 AM64 °FScattered clouds.7 mph73%30.21 "HgN/A
11:20 AM61 °FScattered clouds.7 mph77%30.21 "HgN/A
10:50 AM61 °FPassing clouds.10 mph77%30.21 "HgN/A
10:20 AM61 °FSunny.8 mph77%30.18 "Hg10 mi
9:50 AM59 °FSunny.9 mph82%30.18 "Hg10 mi
9:20 AM57 °FPassing clouds.8 mph88%30.18 "HgN/A
8:50 AM55 °FPassing clouds.7 mph88%30.18 "HgN/A
8:20 AM55 °FPassing clouds.6 mph88%30.15 "HgN/A
7:50 AM55 °FPassing clouds.7 mph88%30.15 "HgN/A
7:20 AM55 °FPassing clouds.5 mph94%30.15 "HgN/A
6:50 AM55 °FPassing clouds.5 mph94%30.15 "HgN/A
6:20 AM55 °FPassing clouds.7 mph94%30.15 "HgN/A
5:50 AM57 °FPassing clouds.7 mph88%30.15 "Hg6 mi
5:20 AM57 °FPassing clouds.8 mph88%30.12 "Hg6 mi
4:50 AM57 °FPassing clouds.12 mph88%30.12 "HgN/A
4:20 AM57 °FPassing clouds.12 mph88%30.12 "HgN/A
3:50 AM57 °FPassing clouds.10 mph88%30.12 "HgN/A
3:20 AM59 °FPassing clouds.13 mph88%30.12 "HgN/A
2:50 AM59 °FPassing clouds.12 mph88%30.12 "HgN/A
2:20 AM59 °FPassing clouds.10 mph88%30.12 "HgN/A
1:50 AM59 °FPassing clouds.9 mph88%30.12 "HgN/A
1:20 AM61 °FPassing clouds.13 mph88%30.12 "HgN/A
12:50 AM61 °FPassing clouds.12 mph88%30.09 "Hg4 mi
12:20 AM61 °FPartly cloudy.12 mph88%30.09 "Hg6 mi
11:50 PM
Sep 30
61 °FPartly cloudy.12 mph88%30.09 "Hg6 mi
11:20 PM61 °FPassing clouds.12 mph88%30.09 "Hg6 mi
10:50 PM61 °FPassing clouds.10 mph94%30.12 "Hg5 mi
10:20 PM61 °FPassing clouds.9 mph94%30.12 "Hg6 mi
9:50 PM61 °FScattered showers. Passing clouds.10 mph88%30.12 "HgN/A
9:20 PM61 °FPassing clouds.9 mph88%30.12 "Hg4 mi
8:50 PM61 °FScattered showers. Passing clouds.8 mph88%30.12 "HgN/A
8:20 PM61 °FLight rain. Passing clouds.7 mph88%30.12 "HgN/A
7:50 PM63 °FPassing clouds.8 mph77%30.12 "HgN/A
7:20 PM63 °FSunny.8 mph77%30.12 "Hg10 mi
6:50 PM63 °FMild.8 mph77%30.12 "HgN/A
6:20 PM64 °FSunny.9 mph73%30.12 "Hg10 mi
5:50 PM64 °FPassing clouds.10 mph73%30.12 "HgN/A
5:20 PM66 °FPassing clouds.8 mph68%30.12 "HgN/A
Weather by CustomWeather, © 2014

See weather overviewHow to use our weather pages